Weather History for K9L2 - March, 2013

Change the Weather History Date:

Thursday, March 7, 2013

  Actual Average (KEDW) Record (KEDW)
Temperature  
Mean Temperature 48 °F -  
Max Temperature 55 °F 64 °F 77 °F (2004)
Min Temperature 41 °F 35 °F 29 °F (2009)
Degree Days  
Heating Degree Days 17    
Moisture  
Dew Point 32 °F    
Average Humidity 57    
Maximum Humidity 79    
Minimum Humidity 38    
Precipitation  
Precipitation 0.00 in - - ()
Sea Level Pressure  
Sea Level Pressure 29.90 in    
Wind  
Wind Speed 12 mph (WSW)    
Max Wind Speed 22 mph    
Max Gust Speed 33 mph    
Visibility 10 miles    
Events      
Averages and records for this station are not official NWS values.
T = Trace of Precipitation, MM = Missing Value Source: NWS Daily Summary

Daily Weather History Graph

Daily Weather History Graph

Search for Another Location

Airport or City:

Trip Planner

Search our weather history database for the weather conditions in past years. The results will help you decide how hot, cold, wet, or windy it might be!

Date:

Astronomy

Mar. 07, 2013 Rise Set
Actual Time 6:12 AM PST 5:52 PM PST
Civil Twilight 5:47 AM PST 6:17 PM PST
Nautical Twilight 5:17 AM PST 6:47 PM PST
Astronomical Twilight 4:48 AM PST 7:16 PM PST
Moon 3:07 AM PST (3/7) 1:53 PM PST (3/7)
Length of Visible Light 12h 30m
Length of Day
11h 40m
Waning Crescent, 19% of the Moon is Illuminated
Mar 7
Waning Crescent
Mar 11
New
Mar 19
First Quarter
Mar 27
Full
Apr 2
Last Quarter

Hourly Weather History & Observations

Time (PST) Temp. Windchill Dew Point Humidity Pressure Visibility Wind Dir Wind Speed Gust Speed Precip Events Conditions
12:55 AM - - - N/A% - 10.0 mi WSW 8.1 mph - N/A   Mostly Cloudy
1:30 AM 44.6 °F 39.7 °F 37.4 °F 76% 29.93 in 10.0 mi West 9.2 mph - N/A   Scattered Clouds
1:55 AM 44.1 °F 38.6 °F 36.0 °F 73% 29.93 in 10.0 mi WSW 10.4 mph - N/A   Partly Cloudy
2:55 AM 41.0 °F 34.7 °F 35.1 °F 79% 29.93 in 10.0 mi WNW 10.4 mph - N/A   Mostly Cloudy
3:55 AM 44.1 °F 38.1 °F 34.0 °F 68% 29.93 in 10.0 mi West 11.5 mph - N/A   Scattered Clouds
4:03 AM 44.6 °F 39.2 °F 33.8 °F 66% 29.92 in 10.0 mi West 10.4 mph - N/A   Mostly Cloudy
4:36 AM 42.8 °F 38.6 °F 33.8 °F 70% 29.92 in 10.0 mi WSW 6.9 mph - N/A   Scattered Clouds
4:49 AM 42.8 °F 39.3 °F 33.8 °F 70% 29.92 in 10.0 mi West 5.8 mph - N/A   Mostly Cloudy
4:55 AM 42.1 °F 37.1 °F 34.0 °F 73% 29.94 in 10.0 mi West 8.1 mph - N/A   Scattered Clouds
5:16 AM 42.8 °F 38.6 °F 33.8 °F 70% 29.93 in 10.0 mi West 6.9 mph - N/A   Mostly Cloudy
5:55 AM 41.0 °F 35.2 °F 34.0 °F 76% 29.94 in 10.0 mi West 9.2 mph - N/A   Scattered Clouds
6:55 AM 43.0 °F 38.2 °F 34.0 °F 71% 29.94 in 10.0 mi West 8.1 mph - N/A   Clear
7:55 AM 46.9 °F - 30.9 °F 54% 29.94 in 10.0 mi West 13.8 mph - N/A   Clear
8:55 AM 51.1 °F - 33.1 °F 50% 29.94 in 10.0 mi WSW 18.4 mph 25.3 mph N/A   Clear
9:55 AM 53.1 °F - 33.1 °F 47% 29.92 in 10.0 mi WSW 19.6 mph 25.3 mph N/A   Clear
10:55 AM 55.0 °F - 34.0 °F 45% 29.92 in 10.0 mi SW 19.6 mph 25.3 mph N/A   Clear
11:55 AM 55.0 °F - 34.0 °F 45% 29.91 in 10.0 mi WSW 18.4 mph 27.6 mph N/A   Mostly Cloudy
12:12 PM 55.4 °F - 33.8 °F 44% 29.90 in 10.0 mi WSW 16.1 mph 24.2 mph N/A   Scattered Clouds
12:55 PM 55.9 °F - 32.0 °F 40% 29.88 in 10.0 mi SW 20.7 mph 33.4 mph N/A   Clear
1:55 PM 55.0 °F - 30.0 °F 38% 29.86 in 10.0 mi WSW 21.9 mph 28.8 mph N/A   Clear
2:55 PM 54.0 °F - 28.9 °F 38% 29.86 in 10.0 mi WSW 21.9 mph 28.8 mph N/A   Clear
3:55 PM 53.1 °F - 30.0 °F 41% 29.85 in 10.0 mi WSW 19.6 mph - N/A   Clear
4:55 PM 51.1 °F - 30.0 °F 44% 29.86 in 10.0 mi SW 18.4 mph 26.5 mph N/A   Clear
5:55 PM 48.9 °F - 30.9 °F 50% 29.86 in 10.0 mi WSW 17.3 mph - N/A   Partly Cloudy
6:55 PM 48.0 °F - 28.9 °F 48% 29.87 in 10.0 mi SW 20.7 mph 25.3 mph N/A   Scattered Clouds
7:55 PM 46.9 °F - 26.1 °F 44% 29.86 in 10.0 mi WSW 16.1 mph 25.3 mph N/A   Clear
8:55 PM 45.0 °F 37.6 °F 28.0 °F 52% 29.85 in 10.0 mi West 17.3 mph - N/A   Partly Cloudy
9:55 PM 44.1 °F 38.6 °F 30.0 °F 58% 29.85 in 10.0 mi West 10.4 mph - N/A   Partly Cloudy
10:55 PM - - - N/A% - 10.0 mi Variable 4.6 mph - N/A   Unknown
11:00 PM - - - N/A% - - North - - N/A   Unknown
11:55 PM 42.8 °F - 30.2 °F 61% 29.81 in 10.0 mi Calm Calm - N/A   Scattered Clouds